Wind_Speed
69 64 62 60 57 53 54 55 53 50 49 47 46 44 43 41 40 40 38 35 31 29 30 29 27 24 21 20 19 18 17 17 17 17 18 19 19 18 16 12 9 9 9 8 8 8 10 13 17 18 15 14 15 16 18 19 17 17 20 23 23 24 30 33 34 37 37 33 31 32 34 34 32 32 33 29 26 27 28 26 23 21 21 22 21 18 15
67 63 62 61 56 55 57 56 53 51 49 48 47 45 43 40 40 40 39 36 31 29 31 30 28 25 22 21 20 18 17 16 16 16 17 17 18 17 15 12 9 9 9 9 9 10 12 14 17 16 14 14 14 14 16 19 18 18 23 25 24 26 32 33 32 36 35 30 30 33 35 35 34 34 32 28 28 29 28 25 23 22 21 21 21 17 16
67 64 62 59 56 56 57 56 54 51 50 49 47 46 43 41 41 41 40 37 32 31 31 30 28 26 24 22 20 18 17 16 15 15 16 16 17 16 15 13 10 9 9 9 9 12 14 14 15 15 16 16 13 12 15 17 19 22 25 26 25 29 33 32 31 35 34 29 30 34 32 32 36 36 31 28 28 28 27 25 24 24 22 21 20 17 18
66 63 60 57 57 58 58 56 55 52 51 50 48 47 44 42 41 41 40 38 34 31 31 31 29 27 24 23 21 19 18 16 15 15 15 16 16 16 16 15 12 10 10 9 11 14 15 15 16 16 17 17 14 13 13 14 20 26 26 25 27 31 31 30 31 35 33 29 31 33 28 29 36 35 29 29 30 27 27 27 26 26 24 21 20 18 18
63 60 57 58 60 60 59 58 56 53 52 50 49 48 45 42 42 42 41 40 35 31 31 31 30 27 25 25 23 20 18 16 15 15 15 15 16 16 16 16 14 12 11 11 12 14 15 15 16 16 18 18 16 17 15 14 19 26 26 25 28 31 29 27 31 34 31 28 31 31 27 30 37 34 26 29 31 29 29 29 28 28 25 23 23 20 18
58 56 57 60 62 60 60 59 57 54 53 51 50 49 46 44 44 42 42 41 37 34 32 31 30 29 27 26 24 20 19 17 15 14 14 15 15 15 16 16 15 13 12 12 12 13 15 16 15 16 18 17 15 16 16 15 20 26 26 24 27 31 29 28 32 32 28 28 30 29 29 34 38 34 27 28 31 31 30 30 29 29 26 24 24 22 20
55 56 58 62 63 61 61 60 57 55 54 52 52 50 48 46 45 42 42 42 39 35 32 30 30 30 28 26 24 22 20 18 16 14 14 14 15 15 15 16 16 14 13 12 13 13 14 14 14 15 16 15 14 13 14 17 23 26 25 24 26 30 30 30 33 32 28 30 32 31 33 36 37 35 30 29 32 33 33 32 31 29 27 25 25 23 20
56 58 61 64 64 62 62 60 58 57 55 54 53 52 49 47 44 43 43 43 41 36 32 30 31 30 29 27 25 23 20 18 17 15 14 14 14 15 15 15 15 15 13 12 13 14 13 13 14 15 15 14 15 14 13 17 23 25 24 24 26 30 31 31 33 32 30 34 34 33 36 37 36 36 33 31 33 35 34 34 32 29 27 26 25 23 20
58 61 63 65 65 64 63 61 59 58 57 55 54 52 49 47 45 44 45 44 42 38 35 32 31 30 29 29 27 25 22 20 18 16 15 14 14 15 15 15 15 15 13 13 13 13 12 12 14 15 14 14 15 14 13 17 22 23 22 22 25 29 31 32 33 32 32 36 35 33 36 37 36 36 35 33 34 35 35 34 31 28 27 27 25 23 21
61 64 65 66 67 66 63 61 60 59 57 56 55 51 49 48 47 46 46 45 42 40 37 33 31 31 31 31 29 26 23 20 19 17 16 14 14 15 15 14 15 14 13 13 11 12 12 11 12 14 14 15 16 15 14 18 22 22 23 25 25 26 30 32 33 31 32 35 34 32 35 36 35 36 36 34 34 36 35 33 32 30 28 28 27 24 23
64 67 67 67 68 66 64 62 61 60 58 57 54 52 51 50 49 47 46 44 43 41 38 34 33 33 33 33 31 27 24 21 20 19 17 15 14 15 15 15 15 14 13 12 11 11 11 10 12 14 14 16 17 17 17 20 22 21 24 28 28 26 29 33 34 33 32 32 31 32 34 35 35 36 35 34 34 36 35 34 34 32 30 30 30 28 26
68 69 68 69 69 67 64 62 61 61 59 57 55 53 52 51 50 49 47 45 44 42 39 36 35 35 35 34 32 28 25 23 22 20 18 16 14 15 15 15 15 14 13 12 12 13 12 13 15 16 17 17 19 20 20 22 24 22 22 27 28 27 29 33 35 35 34 31 30 33 34 33 33 35 35 33 33 34 35 35 35 35 33 32 32 32 31
70 71 70 71 71 68 65 63 62 62 60 57 56 55 53 51 51 50 48 46 46 44 40 38 36 35 35 34 32 30 27 25 23 21 19 16 15 15 16 16 15 14 13 13 15 15 15 16 18 19 20 19 18 19 21 22 25 23 22 25 28 27 29 32 34 36 37 35 33 34 34 33 33 35 37 36 34 34 36 37 36 36 36 33 33 34 33
72 72 71 72 71 69 66 65 64 63 61 59 58 56 53 52 52 51 49 47 46 45 42 40 37 35 35 34 34 32 29 27 25 23 20 18 16 17 18 17 16 14 13 13 16 17 18 18 19 20 21 20 19 20 22 23 25 25 25 27 28 28 29 31 34 36 37 37 37 36 35 34 35 37 39 40 38 36 37 38 38 38 37 35 34 34 35
73 72 72 72 72 70 68 66 65 64 62 61 59 57 53 52 52 52 50 49 47 46 45 41 38 35 35 35 35 33 31 29 27 24 21 19 18 18 20 19 16 14 13 14 16 18 20 20 20 21 22 22 22 23 23 25 27 27 26 27 28 29 31 32 34 37 38 40 41 40 37 34 35 38 40 41 41 39 37 38 40 39 38 36 35 34 35
73 72 72 72 72 70 68 67 66 65 63 61 60 57 54 53 53 53 51 50 48 47 45 42 39 38 37 37 37 36 34 31 28 25 22 20 19 20 21 20 17 15 15 15 17 19 20 21 21 21 21 22 24 25 25 26 26 24 24 25 27 29 30 29 31 34 37 40 43 44 40 36 35 38 40 41 42 42 39 39 40 40 39 37 36 36 35
73 73 72 72 71 70 69 68 67 65 63 61 59 56 54 54 54 54 53 50 48 47 45 44 42 41 39 38 38 37 35 32 28 25 23 22 21 21 22 21 19 17 16 16 17 19 19 20 21 21 20 20 22 25 26 26 26 24 24 25 27 28 28 28 29 32 34 38 42 44 42 39 38 39 41 42 42 42 41 40 41 41 39 38 37 37 36
74 73 73 73 72 71 70 69 68 66 64 62 58 55 55 56 56 55 53 51 49 47 46 46 45 42 39 38 38 36 34 32 30 27 25 23 22 22 22 22 21 19 18 18 18 19 19 20 20 20 19 19 20 24 26 26 26 26 25 24 25 27 28 28 29 31 33 35 39 42 42 41 41 40 40 43 43 42 41 41 41 41 40 39 38 38 38
74 73 72 73 72 71 70 69 68 67 66 64 60 58 58 59 58 56 54 52 50 48 48 48 46 43 41 39 37 35 35 35 34 30 27 25 23 22 22 21 22 21 20 19 19 19 19 19 19 19 19 18 18 21 24 25 25 26 26 25 24 26 29 28 29 32 33 32 34 38 40 43 43 41 41 43 44 42 42 42 41 40 41 40 40 39 39
73 73 72 73 73 72 71 69 68 68 67 65 62 61 61 60 60 58 55 52 50 49 49 48 46 43 43 41 39 38 38 38 34 30 28 26 24 23 22 21 21 23 22 20 20 20 20 19 19 19 19 17 16 19 22 24 24 25 26 27 25 25 27 28 29 31 33 35 36 36 37 41 43 43 43 43 44 44 44 42 41 41 41 41 41 40 39
72 74 73 73 73 73 71 70 69 69 68 66 63 63 63 61 60 58 55 52 51 50 49 48 46 46 46 44 42 40 40 39 37 34 31 28 25 24 22 21 21 23 23 21 20 21 20 19 18 18 17 16 15 18 22 24 23 24 26 28 27 26 27 29 30 30 33 36 37 35 35 38 43 44 44 44 45 45 45 43 43 43 43 42 42 41 40
70 73 74 74 74 74 73 72 71 70 69 67 64 63 63 62 60 58 55 53 52 50 49 49 49 49 48 46 43 41 40 40 40 38 33 29 26 25 23 22 23 24 24 23 22 22 21 19 18 17 17 16 16 19 23 24 24 24 26 28 28 27 27 29 30 31 32 33 34 36 37 38 41 43 44 45 45 45 45 45 45 44 44 43 42 42 42
68 70 73 74 74 74 74 74 73 72 70 67 65 65 64 63 61 58 56 54 52 51 51 51 51 51 50 48 45 43 42 42 41 38 34 30 27 26 25 24 24 24 25 24 22 22 22 21 20 19 18 18 19 21 23 25 26 26 27 28 30 28 29 31 31 31 32 32 32 34 36 36 37 39 41 44 45 44 44 45 45 45 45 45 44 43 42
64 67 70 71 72 72 73 73 73 72 70 68 66 66 65 64 62 59 57 56 53 53 53 53 53 53 51 48 47 44 43 43 42 39 37 33 30 28 28 27 26 26 26 25 24 23 24 23 21 19 19 20 21 22 23 25 26 26 26 28 30 29 31 36 35 33 35 36 33 32 34 36 38 38 38 40 41 42 43 45 45 46 46 46 46 45 44
61 64 67 69 69 70 71 72 73 72 70 68 67 67 66 64 62 60 59 57 55 55 55 55 54 52 50 50 49 45 44 45 44 41 39 38 36 34 33 30 28 27 27 27 26 26 26 24 23 21 21 22 22 22 25 27 27 28 29 29 29 29 33 37 37 36 39 38 33 30 32 35 37 38 39 39 38 38 41 44 46 46 47 47 48 47 46
60 62 65 67 68 69 70 71 71 70 69 68 68 68 66 64 63 61 60 59 58 57 57 56 55 54 53 52 49 46 46 48 47 44 43 42 41 40 38 34 31 29 29 28 28 28 27 25 25 25 25 25 24 25 27 28 28 30 32 31 30 31 33 34 34 37 40 38 33 31 31 31 33 36 38 38 38 37 38 41 43 45 46 47 48 48 47
60 62 64 66 67 68 69 70 70 69 68 67 67 67 66 64 64 63 61 61 60 59 58 58 56 54 53 51 48 48 49 50 48 47 45 42 42 43 42 39 35 32 31 31 32 33 32 29 28 28 29 29 28 28 28 28 27 29 31 31 32 32 32 31 32 34 35 34 33 34 35 35 35 37 38 39 40 40 40 41 43 45 47 48 48 48 48
60 62 64 66 67 68 69 69 68 67 67 67 66 66 65 64 64 63 62 62 61 60 60 59 56 55 55 52 50 51 51 49 49 49 46 44 43 45 45 44 41 37 35 35 35 36 36 35 32 31 32 32 32 31 30 29 29 29 29 30 31 32 33 34 35 34 33 32 32 34 36 38 39 40 40 39 41 42 42 42 42 43 44 46 48 49 49
59 61 63 65 66 67 68 68 67 67 66 67 66 65 64 64 64 64 63 63 62 61 61 60 59 59 57 54 53 53 51 49 50 50 49 46 45 45 47 47 45 43 42 41 38 36 37 37 36 36 36 36 35 33 31 31 31 31 31 31 31 32 35 36 36 34 33 33 34 35 36 37 38 40 40 40 41 42 42 42 42 42 42 42 43 45 46
58 60 62 64 65 66 66 67 66 66 66 66 67 65 64 63 64 65 64 64 64 63 62 61 60 59 57 55 55 54 51 51 52 52 51 49 47 46 47 47 47 47 47 45 42 40 38 38 38 39 40 39 36 34 33 34 34 35 35 34 33 35 38 38 37 36 35 36 37 38 38 38 38 39 39 41 42 43 42 42 43 44 44 44 43 42 42
59 59 61 63 64 65 66 66 67 67 67 67 67 66 64 64 64 65 65 66 66 65 64 62 61 60 59 59 57 55 54 54 53 52 52 52 50 49 49 48 48 49 49 48 46 44 41 38 38 40 42 41 39 37 37 38 38 38 37 36 35 37 38 38 37 37 38 38 39 40 40 39 38 39 40 41 42 43 43 44 44 44 46 47 47 46 46
60 60 61 63 64 65 66 67 68 69 69 68 68 67 66 65 65 66 66 67 67 67 66 64 62 61 61 60 58 57 57 56 55 53 53 54 53 52 51 51 51 51 51 50 49 47 44 42 40 41 42 43 41 40 39 41 41 40 39 38 39 38 38 37 36 37 38 38 39 40 39 38 38 39 41 42 42 42 43 44 44 45 46 47 47 47 47
62 62 62 62 64 66 67 68 69 70 70 70 69 68 68 67 67 67 68 68 68 68 68 66 65 64 63 62 61 60 59 58 58 57 55 54 55 55 54 53 54 53 53 53 51 48 46 44 42 40 41 42 43 41 40 42 44 43 41 41 40 39 37 37 36 36 37 37 38 39 38 38 39 40 40 41 41 41 41 41 41 43 45 46 48 48 48
64 65 64 63 64 66 68 69 71 71 72 71 71 70 69 69 69 69 69 69 69 69 69 69 68 67 65 65 64 63 62 61 60 59 57 56 57 57 57 57 56 54 54 54 51 48 47 47 44 41 40 40 41 40 41 43 45 45 44 43 42 40 39 38 37 36 36 36 37 37 38 39 40 40 40 41 42 42 42 42 41 42 43 44 45 46 46
64 66 67 66 66 66 67 69 71 72 73 73 72 71 71 71 71 71 70 69 70 71 71 72 71 69 68 68 66 64 64 64 63 61 60 59 59 59 60 60 58 56 56 55 52 49 49 49 47 43 41 39 38 39 41 43 45 45 44 44 42 41 41 40 39 38 38 37 37 37 37 38 39 40 42 43 44 44 44 44 45 45 44 44 44 44 44
65 66 68 69 69 68 68 69 70 71 72 73 73 72 72 73 73 73 72 70 70 71 72 73 73 72 70 68 66 65 66 67 66 64 63 62 61 60 61 61 60 59 58 56 53 50 50 50 48 45 42 39 37 38 40 41 41 41 42 42 42 41 42 42 41 40 41 40 39 39 38 38 38 39 41 43 45 47 46 45 45 46 45 44 44 45 45
68 68 68 70 71 71 71 70 70 71 71 72 73 73 74 74 75 75 75 73 71 71 71 73 74 74 72 70 68 68 68 69 68 67 66 64 63 63 62 61 60 59 59 57 54 52 52 52 50 47 45 43 42 42 44 43 41 39 39 39 41 42 43 42 41 42 43 44 42 41 40 40 39 39 40 41 44 47 48 47 45 45 45 45 46 47 47
70 70 70 71 72 73 73 73 72 72 72 72 73 73 74 75 76 76 76 75 74 72 71 71 72 73 73 72 71 71 70 69 69 70 68 67 66 65 64 63 61 60 59 58 57 56 56 55 53 51 50 49 49 49 49 49 47 44 41 38 38 40 41 41 42 44 46 46 44 43 43 43 42 42 42 42 43 45 48 49 49 48 48 47 48 48 47
71 72 72 73 73 74 74 75 75 75 75 75 74 74 74 74 75 76 77 77 76 74 73 71 71 71 71 71 72 72 71 71 71 71 70 69 68 67 66 65 63 62 61 61 60 60 59 57 55 53 53 53 52 52 53 53 51 46 41 38 38 39 42 44 45 46 46 45 44 44 45 45 45 44 44 44 44 45 46 47 49 51 53 53 54 53 52
73 73 74 74 74 74 75 76 76 77 77 77 77 77 77 76 76 76 77 77 77 76 75 74 73 72 71 71 72 71 71 72 73 73 71 71 70 68 67 66 65 64 63 62 62 62 61 59 56 55 55 55 55 55 55 54 50 44 41 42 45 45 45 44 45 46 47 47 46 46 46 47 46 46 46 47 47 47 46 46 47 49 51 54 56 58 58
74 74 74 74 74 75 75 76 77 77 78 79 79 79 79 79 78 78 78 78 78 78 78 77 76 75 74 73 71 70 71 72 74 74 74 73 71 70 69 68 66 64 64 64 63 63 63 61 58 57 58 58 57 56 56 54 50 46 46 48 49 48 45 45 46 46 47 49 49 49 48 48 48 47 48 48 49 49 49 48 48 48 49 50 53 55 56
74 74 74 74 75 75 76 76 77 78 78 79 80 80 80 81 81 80 79 79 79 80 80 80 79 78 77 75 73 71 72 75 76 77 77 76 74 71 70 69 67 66 66 66 65 66 66 63 60 60 61 60 59 58 57 55 53 52 52 51 50 48 47 47 48 48 49 49 50 50 50 50 50 50 50 50 50 50 50 50 51 51 50 50 53 54 54
73 74 74 74 74 75 76 77 77 78 79 80 80 81 81 81 81 81 80 80 81 81 81 81 81 81 80 79 76 75 76 77 79 80 80 79 77 74 71 69 68 68 69 67 66 67 67 66 64 63 62 61 60 60 59 57 56 57 57 55 52 50 49 49 50 50 50 50 51 51 51 52 52 52 52 53 53 53 52 53 53 52 52 52 54 56 56
72 73 74 74 75 75 75 76 77 78 79 80 81 82 82 81 81 81 80 80 80 80 81 82 83 83 83 81 79 79 79 79 80 81 81 81 79 76 72 70 70 71 71 69 67 67 67 68 68 66 64 63 62 61 60 59 59 59 60 59 57 54 53 52 52 51 51 51 51 51 51 52 52 53 54 54 55 55 55 55 55 55 54 54 55 56 57
71 72 73 74 74 75 75 76 77 78 80 81 82 83 83 83 82 81 80 80 80 80 80 82 83 84 84 83 82 82 81 81 80 81 82 81 80 77 74 72 72 72 71 70 69 68 69 70 71 69 66 65 64 63 63 62 61 60 62 63 62 60 58 56 55 54 54 54 53 52 52 53 53 54 55 56 56 57 58 58 58 59 58 57 58 58 57
69 70 72 73 74 75 76 77 78 79 80 81 82 82 83 83 82 81 81 81 81 80 80 81 82 83 83 84 84 84 83 82 82 82 82 81 81 80 79 76 74 72 71 71 70 70 72 74 74 72 69 67 66 66 66 65 64 63 64 65 66 65 63 62 60 58 57 57 56 56 55 55 56 56 56 56 57 59 60 60 61 62 62 62 62 61 60
67 69 70 71 73 74 76 78 78 79 80 80 82 82 82 81 81 82 83 83 82 80 80 81 82 82 83 84 84 84 84 83 83 83 82 81 81 82 82 80 76 73 72 71 72 73 76 77 77 75 73 71 70 69 68 68 68 68 68 68 69 69 68 67 65 63 61 60 60 59 59 59 59 59 59 58 58 59 60 61 62 64 65 65 66 65 65
66 67 69 70 72 74 76 78 79 79 79 80 81 81 81 81 82 83 84 83 81 80 81 82 82 82 83 83 84 84 84 84 83 83 83 82 82 82 82 81 79 76 74 73 74 77 79 79 78 78 76 75 73 72 71 70 71 72 72 72 72 72 71 70 69 67 65 64 64 63 63 63 63 63 63 62 61 60 60 61 62 64 65 67 67 67 67
65 66 68 69 71 73 75 77 78 79 79 79 80 81 81 82 82 83 83 82 81 81 83 83 82 82 83 84 84 84 84 84 84 84 83 82 82 82 82 82 81 80 78 77 77 78 79 79 79 79 78 77 77 76 75 74 75 75 74 74 74 74 73 73 72 71 70 69 68 68 68 68 68 67 67 66 65 64 63 62 63 65 67 68 68 67 67
63 65 67 69 71 72 73 75 77 78 78 79 80 81 82 82 82 82 82 83 83 83 84 84 83 83 84 84 84 83 84 84 84 84 83 82 83 83 83 82 82 83 82 81 79 79 79 79 79 79 78 78 79 79 78 78 79 79 77 77 77 77 76 76 75 75 73 72 72 71 71 72 72 72 72 71 70 69 68 66 66 67 68 70 70 69 68
63 64 66 68 69 71 72 74 75 77 78 79 80 81 81 82 82 82 82 84 85 85 85 85 85 84 84 84 84 84 85 85 85 84 84 84 84 84 84 84 84 85 85 83 81 80 80 80 80 79 78 79 80 81 81 81 82 81 80 80 80 80 79 79 78 77 76 76 75 75 75 75 75 75 76 75 75 74 73 72 70 70 71 72 73 72 71
62 64 65 67 68 70 71 73 75 76 77 78 79 80 80 80 81 82 84 86 87 87 87 87 86 85 84 84 85 86 86 86 86 85 85 85 86 86 86 87 87 87 87 86 84 83 81 79 79 80 81 82 83 83 83 82 83 83 82 83 83 83 82 82 81 81 80 80 80 79 79 79 79 79 79 79 79 79 78 77 75 74 74 75 75 74 73
Wind_Direction
256 256 256 255 252 244 235 232 232 230 229 233 236 237 238 239 239 241 244 248 251 253 255 256 259 264 271 277 285 295 307 318 321 321 324 330 337 339 336 327 313 305 289 266 250 244 235 222 217 214 209 206 205 207 205 197 192 195 194 189 188 189 185 182 183 182 179 181 184 181 181 182 181 178 174 172 175 177 177 182 183 177 175 174 169 171 178
256 255 253 252 247 236 229 229 229 226 227 231 233 234 236 237 237 239 241 244 247 249 252 253 255 259 264 269 278 288 299 311 318 318 319 324 332 335 333 323 303 288 275 258 248 247 240 234 230 219 209 213 219 218 210 200 196 199 196 192 192 192 188 186 187 186 184 188 192 187 184 185 183 177 177 178 179 179 179 182 183 179 177 179 179 185 188
254 253 250 245 237 228 223 224 225 223 225 229 230 232 233 234 235 236 238 240 242 245 248 250 250 253 258 264 271 280 291 303 312 315 315 318 324 329 330 322 304 284 268 248 236 241 242 239 235 225 214 218 228 229 215 202 200 201 198 195 191 190 192 191 188 187 187 191 194 192 189 189 184 179 179 183 182 181 181 182 185 183 181 184 187 192 191
250 248 243 235 227 222 220 221 222 221 223 227 228 229 230 231 233 235 236 239 240 242 245 247 247 251 255 259 264 272 283 295 305 312 313 312 317 323 326 322 310 291 273 248 232 234 236 234 230 224 219 221 226 230 224 212 205 200 198 196 190 187 191 192 190 189 191 194 194 194 196 193 186 183 185 187 185 184 184 186 187 184 182 186 188 186 190
245 241 233 223 218 218 218 218 219 220 221 224 226 228 228 229 232 233 234 236 237 239 242 244 246 249 251 254 259 266 277 286 297 307 310 308 310 316 320 320 312 297 278 256 239 234 233 232 230 222 220 223 226 225 225 219 205 200 198 196 191 187 187 189 192 192 196 200 196 194 198 193 187 187 192 193 191 188 188 188 187 184 183 186 185 185 195
237 231 222 215 213 215 215 216 218 218 219 222 224 226 226 227 229 230 231 233 235 236 238 241 245 247 248 251 255 261 269 278 289 301 305 303 303 309 314 315 311 301 287 267 249 235 229 229 229 223 220 227 228 221 222 219 202 194 197 199 194 189 186 189 192 194 199 203 198 196 195 190 189 191 193 196 197 192 189 188 186 186 187 186 186 191 200
226 219 214 211 211 212 213 214 216 216 218 220 222 225 225 225 227 228 230 232 234 235 237 240 244 245 245 246 249 254 263 272 281 291 297 296 296 301 307 310 309 304 295 278 258 242 231 227 228 224 221 229 232 222 219 216 199 187 192 201 197 191 190 192 196 199 202 200 199 200 196 190 193 196 194 197 200 194 189 188 187 189 191 189 192 199 204
217 212 210 209 209 211 212 213 214 215 216 219 221 223 224 224 225 226 228 229 232 234 236 238 240 242 243 243 245 250 257 266 275 284 290 291 290 293 299 304 307 306 298 282 265 249 234 223 224 225 217 221 229 224 215 210 198 188 189 198 197 194 196 198 201 207 207 199 198 200 198 195 198 199 197 199 200 196 193 192 190 192 195 194 196 201 203
212 209 208 208 208 209 211 212 213 214 215 217 219 221 222 223 223 224 226 227 229 232 233 235 238 240 240 240 242 246 252 260 270 278 283 287 285 285 292 299 304 303 293 281 269 254 238 224 223 223 213 212 221 221 211 203 196 188 190 199 202 201 203 204 206 212 210 201 199 201 201 203 204 203 202 201 200 199 197 196 196 197 198 200 201 202 206
208 206 206 207 208 209 210 212 213 214 215 217 218 219 220 222 222 223 224 225 227 230 232 233 236 237 237 238 240 243 248 255 264 271 278 283 281 279 284 292 297 296 288 281 270 253 241 231 227 225 218 213 215 213 204 197 191 187 191 200 204 205 207 207 211 217 212 204 204 205 205 208 210 210 209 206 203 202 200 201 202 202 202 204 206 207 212
205 204 205 206 207 209 211 212 212 213 215 216 217 218 220 220 221 222 222 223 225 229 231 231 232 234 235 237 238 240 243 250 257 265 273 279 277 273 275 283 288 288 283 279 269 255 243 232 229 230 224 217 215 214 207 199 196 193 194 199 203 206 208 209 214 217 212 207 210 210 208 211 214 213 213 213 210 207 206 207 208 207 207 207 207 210 216
203 203 204 205 206 208 211 211 212 213 214 214 215 218 219 220 221 222 221 222 224 227 229 229 229 231 234 236 237 237 240 245 252 260 268 276 275 267 267 274 279 280 280 275 266 257 244 232 231 232 230 224 218 214 207 200 200 200 196 199 206 211 211 211 214 214 208 207 212 211 211 216 218 214 213 216 218 216 214 214 213 213 213 211 209 213 219
202 203 204 205 206 208 210 211 211 212 213 213 215 218 218 219 221 222 221 222 224 225 228 229 228 229 233 235 235 236 237 242 249 256 263 270 270 261 258 263 268 274 280 271 261 257 250 242 239 238 237 234 223 214 209 202 200 200 200 203 207 210 213 216 217 213 207 208 211 212 214 219 221 216 212 214 219 221 219 219 219 219 219 218 216 217 221
202 203 204 205 206 207 209 210 211 212 211 212 215 217 217 218 220 221 221 222 223 225 226 227 228 229 231 233 234 235 236 240 244 251 259 265 265 256 252 254 261 271 275 264 255 257 257 252 250 249 246 241 231 221 216 209 204 202 204 208 206 204 209 216 217 213 210 209 210 212 215 219 221 219 215 215 219 222 221 222 223 224 225 225 224 223 225
202 203 204 205 206 207 209 210 210 211 211 211 214 216 215 216 219 221 220 221 222 224 225 226 227 228 229 232 235 235 235 237 239 246 255 262 262 255 249 249 255 263 264 259 256 258 260 259 257 255 252 244 233 225 220 215 211 210 212 213 210 207 209 215 217 215 213 212 211 215 220 222 221 220 218 219 222 225 225 225 226 228 229 229 229 229 230
202 203 205 205 206 207 208 209 210 210 210 211 213 214 213 215 218 220 220 220 221 223 224 224 225 224 225 228 232 233 232 234 237 244 253 259 259 255 250 247 248 251 253 258 262 264 265 264 259 256 255 247 236 228 221 216 214 217 223 223 219 216 216 217 219 219 218 215 215 219 224 226 224 221 219 221 225 228 229 230 230 231 232 233 234 234 235
203 204 205 205 206 207 208 209 209 210 210 210 212 213 212 214 217 219 219 219 220 221 222 222 223 224 224 226 230 232 232 233 236 241 247 252 253 252 249 244 242 244 249 255 262 265 266 264 260 258 256 251 241 231 224 218 213 216 224 226 223 222 222 223 223 224 223 220 220 223 227 227 226 224 222 222 225 229 231 232 233 234 235 236 237 238 240
203 204 205 205 206 207 208 208 209 210 210 210 210 211 211 212 215 218 219 218 218 219 221 221 222 224 225 226 230 233 233 231 232 234 240 247 251 253 250 244 240 241 246 252 257 262 265 264 262 259 256 252 244 233 226 220 215 214 218 220 221 222 226 228 228 227 227 226 226 227 228 228 229 229 226 225 226 230 233 233 234 236 238 239 240 242 244
204 205 205 205 206 206 207 208 209 210 210 209 208 208 209 210 213 216 218 218 218 219 221 222 223 224 226 227 230 232 230 228 228 231 237 245 249 249 247 242 239 239 243 248 252 257 262 264 262 259 255 252 243 233 226 223 219 217 215 217 220 223 227 230 230 228 227 228 229 229 229 230 232 233 230 229 229 232 235 236 237 239 241 242 243 245 247
205 205 205 206 206 206 207 208 209 210 211 210 208 207 207 209 211 214 216 217 218 218 220 222 223 224 226 227 228 230 229 228 228 230 235 240 243 245 244 241 239 238 239 242 248 253 258 261 261 258 253 249 240 230 224 222 219 217 216 217 221 226 230 233 233 231 230 229 230 232 231 232 234 235 235 234 232 234 237 240 240 242 243 245 246 248 250
206 206 206 206 207 207 207 208 210 210 211 211 209 207 207 208 210 213 215 216 216 217 219 221 221 221 222 224 225 227 228 227 226 227 230 234 240 244 244 242 242 241 239 240 244 250 254 258 262 260 253 245 237 225 220 219 218 219 220 220 222 229 235 237 236 236 235 233 232 233 232 233 235 236 237 237 237 237 240 243 243 244 246 248 250 251 253
206 206 206 207 208 209 209 209 209 209 210 210 210 209 208 208 209 211 213 215 215 216 217 218 218 218 220 222 224 226 227 228 227 228 231 236 240 243 243 241 242 241 238 237 241 246 251 254 257 255 247 239 232 224 220 219 219 221 223 222 222 227 234 238 238 240 242 238 235 234 233 234 236 237 239 240 241 242 244 245 246 247 248 250 252 254 255
206 206 207 208 209 210 211 210 209 208 209 209 209 209 209 208 209 210 212 214 214 215 216 216 216 217 218 220 222 224 226 227 227 228 231 233 235 239 239 238 238 238 237 236 236 239 242 245 247 248 246 240 232 227 224 223 224 223 223 222 223 226 232 237 237 239 244 243 238 236 235 236 238 240 241 243 244 245 248 249 249 250 250 252 254 255 257
206 206 207 207 209 210 211 211 210 209 209 209 209 209 210 209 209 210 211 213 213 214 216 216 216 216 217 219 221 223 225 226 225 225 229 231 232 236 239 237 236 238 238 235 232 233 235 238 243 248 248 241 233 227 225 226 228 229 227 226 228 231 235 237 235 235 241 244 241 239 238 237 238 240 242 244 246 248 251 253 253 253 253 253 255 257 258
204 205 205 206 207 208 210 211 210 209 209 209 209 209 210 209 209 210 211 213 213 214 216 216 216 216 216 218 220 221 224 226 223 221 226 233 235 237 241 240 237 238 238 234 234 236 237 238 240 242 240 237 234 230 227 227 228 231 232 233 234 235 237 238 236 236 240 242 242 241 241 241 241 242 243 246 249 251 254 255 255 254 254 254 255 257 259
203 204 204 204 204 206 208 209 210 210 209 209 209 209 209 209 210 210 211 212 214 214 215 216 216 216 215 217 219 221 223 225 222 217 221 230 236 238 241 242 241 239 238 236 235 236 236 238 240 238 234 235 236 235 234 234 231 231 235 238 238 239 242 244 242 242 243 245 245 244 244 245 244 244 244 244 246 248 252 255 255 255 255 255 256 258 260
202 203 203 203 203 204 206 207 208 209 209 210 210 210 210 210 210 211 211 212 214 215 215 216 216 216 217 218 219 221 222 224 223 219 219 225 234 239 240 241 242 241 240 238 235 235 235 238 240 238 234 236 238 238 239 242 240 237 240 243 242 243 247 249 248 247 249 249 248 245 243 243 243 243 242 241 240 243 248 252 253 254 255 256 257 258 260
202 202 202 202 203 204 205 206 206 207 208 210 211 211 211 210 210 211 211 212 214 215 216 216 216 216 217 217 218 220 222 223 224 222 219 220 227 235 240 241 242 243 244 242 239 237 236 236 237 238 238 238 239 237 238 241 243 242 244 246 245 244 246 247 248 249 250 249 247 244 242 241 242 243 243 241 241 244 248 249 251 255 257 257 257 258 260
203 202 203 203 203 203 204 204 205 205 207 209 211 212 212 211 211 211 211 213 214 216 217 217 216 216 217 216 217 219 221 222 223 223 221 219 222 229 236 241 242 243 245 246 245 243 239 235 235 239 242 241 240 240 238 239 242 242 243 246 248 246 245 245 247 248 247 246 246 245 244 244 245 245 245 244 245 248 250 249 249 253 257 260 261 261 262
203 203 204 204 204 203 203 203 204 205 207 208 210 211 212 212 211 211 212 213 214 216 217 218 217 218 217 217 218 219 219 221 222 223 222 221 221 224 230 237 241 243 245 247 247 247 244 238 235 238 243 243 243 243 241 240 241 242 243 245 247 247 247 248 248 248 247 245 246 248 249 248 248 248 247 247 247 249 250 250 250 252 254 258 261 263 265
204 204 205 205 205 204 204 204 204 206 208 209 210 212 212 212 212 212 212 212 214 216 217 218 218 218 217 217 218 218 218 220 222 223 223 223 223 223 225 230 237 241 243 245 246 247 246 242 238 238 241 243 243 242 241 240 240 242 244 246 246 248 252 254 253 251 251 249 248 250 251 252 252 251 250 249 249 250 251 252 253 253 253 256 259 261 263
203 204 205 206 205 205 205 205 206 207 208 209 211 212 212 213 213 213 212 213 214 216 217 218 218 217 217 218 218 218 219 220 221 223 224 225 225 225 225 227 231 237 240 242 244 245 245 245 242 239 239 241 242 243 243 242 242 243 246 248 249 251 255 258 257 255 254 252 251 252 252 252 251 251 250 251 252 252 252 254 255 254 254 255 257 259 261
204 204 204 205 206 206 206 206 207 207 208 209 210 211 212 213 213 213 213 214 215 216 217 218 218 217 218 219 219 219 220 221 222 223 224 226 227 227 226 227 230 234 237 239 241 242 243 245 244 241 239 240 240 241 244 245 245 244 245 248 250 252 253 256 257 257 257 256 256 255 254 252 251 250 251 252 252 252 252 254 256 256 256 256 257 259 261
207 206 205 205 206 206 207 207 207 208 209 209 210 211 212 213 214 215 215 215 215 216 217 218 218 219 220 221 222 221 221 221 222 223 224 225 227 227 228 229 231 233 236 238 240 241 242 244 245 243 242 241 241 242 245 247 247 246 246 247 249 251 252 254 256 258 259 259 258 258 257 255 254 254 253 253 253 253 252 253 255 257 258 258 259 262 264
209 208 207 206 206 206 207 207 207 208 209 210 210 211 212 213 214 216 217 217 217 216 217 218 220 221 222 223 224 223 222 222 223 223 224 224 226 227 228 229 231 233 235 237 239 240 242 244 245 244 244 244 243 243 245 247 248 249 248 248 249 251 253 254 255 257 258 259 259 260 259 258 258 258 258 258 258 258 256 256 257 259 261 262 263 265 266
211 211 210 209 208 208 207 207 208 208 209 210 211 211 212 214 215 217 218 219 219 218 218 219 220 222 224 226 227 226 224 223 223 224 224 224 225 227 229 230 231 233 235 237 238 240 243 245 246 245 245 245 245 245 248 250 251 251 251 251 250 251 252 253 254 256 258 259 259 259 259 259 260 260 260 261 263 264 265 264 264 265 266 267 268 268 269
213 213 212 212 211 211 210 209 209 209 209 210 210 212 213 214 216 217 219 220 220 221 221 221 221 222 224 226 227 227 226 225 225 225 225 225 225 227 228 230 232 234 236 238 238 239 241 243 245 247 249 250 249 250 253 256 256 256 256 254 251 250 251 253 256 258 258 258 258 258 259 259 259 259 260 261 263 266 269 271 271 271 271 270 270 270 270
214 214 214 213 213 213 212 212 212 211 211 211 211 212 213 214 216 218 219 220 221 222 223 223 223 223 224 225 226 227 228 227 227 227 227 227 227 227 228 229 230 233 236 238 238 238 239 240 242 244 247 250 251 253 255 257 258 257 257 256 254 253 253 253 254 255 256 257 258 259 259 259 259 259 260 260 261 263 267 271 274 275 276 276 274 273 272
216 215 215 214 214 214 214 214 214 214 214 214 213 213 213 214 215 217 219 221 221 222 223 224 225 225 225 225 226 227 228 229 229 229 229 229 229 229 229 229 230 232 234 236 238 239 240 240 240 241 242 245 247 250 252 254 255 256 258 260 260 258 255 253 252 254 256 258 259 259 260 260 260 260 260 260 260 261 262 265 268 272 274 277 279 279 279
218 217 216 216 215 215 215 215 215 216 216 216 216 216 216 216 216 216 218 220 221 222 223 224 225 225 226 226 227 228 229 230 230 230 231 231 231 231 230 231 231 232 234 237 239 241 242 241 241 241 241 242 243 246 249 251 253 256 259 260 260 259 259 259 259 259 259 259 258 258 259 260 260 261 261 262 261 261 261 261 262 263 265 267 271 275 278
219 219 218 217 216 216 216 216 216 216 217 217 218 219 219 219 218 218 218 219 220 222 223 224 225 226 226 227 228 229 230 231 231 231 231 231 232 231 231 231 232 233 235 238 240 243 244 243 242 242 243 244 244 246 248 251 253 255 256 257 259 260 263 265 264 264 263 262 260 259 260 260 261 261 262 263 263 263 263 262 261 261 260 261 263 266 271
220 220 219 218 217 217 216 216 216 217 217 218 219 220 220 221 221 221 221 221 221 221 222 224 225 226 227 228 228 229 230 231 232 231 231 231 231 231 231 232 232 234 236 238 240 242 244 244 243 243 245 246 247 248 249 251 253 254 256 257 259 262 264 265 265 264 264 264 263 262 261 261 262 262 262 263 263 264 264 264 263 262 261 261 262 263 265
221 221 221 220 219 218 217 217 217 217 217 218 219 219 220 221 222 222 222 223 222 222 222 223 224 225 226 227 228 228 229 230 231 232 232 232 232 232 232 233 233 234 236 238 240 242 244 245 244 244 245 246 248 249 251 252 254 255 256 258 259 262 264 265 265 264 264 265 265 265 263 262 262 263 264 264 265 265 265 265 265 265 264 263 263 263 264
221 221 221 221 221 220 219 218 218 218 218 218 219 219 220 221 222 222 223 223 223 223 223 223 223 224 226 227 228 229 229 230 231 232 233 233 233 233 233 234 234 235 236 237 240 242 244 245 246 246 246 247 248 249 251 253 254 255 256 258 259 261 263 264 264 264 264 265 265 266 265 265 264 264 265 266 266 267 267 267 267 267 266 266 265 265 264
221 221 221 221 221 221 221 220 219 219 219 219 219 219 219 220 221 222 222 223 223 223 223 223 223 224 225 226 227 229 229 230 230 232 233 234 234 234 233 234 235 236 237 238 240 242 244 246 246 246 247 248 249 249 250 251 252 253 254 256 259 260 262 264 264 264 264 264 264 265 266 266 266 266 266 266 267 267 267 267 268 268 268 268 268 268 268
221 221 221 221 221 221 221 221 221 220 219 219 219 219 220 220 220 221 222 223 223 223 223 224 224 224 225 225 227 228 229 230 230 232 233 233 234 234 234 234 235 236 237 239 240 242 244 245 246 246 247 248 249 249 249 250 250 250 252 254 257 259 261 263 265 265 265 265 265 266 266 267 267 267 267 268 268 268 269 269 269 268 268 268 268 268 269
221 221 221 220 220 220 221 221 221 221 220 220 220 220 220 220 220 221 222 223 223 223 224 225 225 225 225 226 227 228 229 230 231 232 232 233 234 235 236 235 235 236 237 238 240 241 243 244 245 246 246 247 247 248 249 249 250 250 251 253 255 258 260 263 265 266 267 267 268 268 269 269 270 270 270 270 270 270 271 271 271 271 270 269 268 268 268
221 220 220 220 220 220 220 221 221 221 221 221 220 220 220 220 220 220 222 223 223 224 225 226 226 226 226 227 227 228 229 230 231 232 233 233 234 236 236 236 236 236 237 238 239 241 242 244 245 246 246 247 247 248 249 250 250 251 252 254 255 258 260 262 264 266 268 269 269 270 270 271 271 272 273 273 273 273 274 274 275 275 274 272 271 269 269
221 220 220 220 220 220 220 220 221 221 221 221 221 221 220 220 220 220 221 222 222 224 225 226 226 226 227 227 228 228 229 230 231 232 233 234 235 236 236 237 237 237 237 238 239 241 242 244 245 246 247 248 249 250 250 251 252 253 253 254 256 258 260 262 264 266 267 268 269 270 271 271 272 273 274 275 275 276 276 277 277 277 277 276 275 273 272
221 221 221 221 220 220 220 221 221 221 221 222 222 222 221 221 220 221 221 221 222 223 225 225 226 227 228 228 228 229 229 230 232 233 233 234 235 236 237 237 238 238 238 238 239 241 243 244 246 247 248 249 251 251 252 253 254 254 255 255 256 258 259 261 263 265 266 267 269 270 271 272 273 274 275 276 277 277 278 278 279 279 279 278 277 276 274
221 221 221 221 221 221 221 221 221 221 221 222 222 222 222 222 221 221 221 222 222 223 224 225 226 227 227 228 229 229 229 230 231 232 233 234 235 236 237 238 238 238 238 239 239 241 243 244 246 247 249 250 251 252 253 253 255 256 256 257 257 258 260 261 263 264 265 267 268 269 270 271 272 273 275 276 277 278 279 280 281 282 281 280 278 276 275
222 221 221 221 222 222 222 222 221 221 221 221 222 223 223 222 222 222 222 222 222 223 224 225 226 227 228 229 230 230 230 231 231 232 233 234 235 236 236 237 238 239 239 239 240 241 242 244 245 247 247 248 249 251 252 253 254 255 256 257 258 259 261 262 263 264 265 266 267 268 269 270 271 273 274 275 276 277 278 279 280 282 282 281 279 277 275
Height
10616 10623 10629 10634 10638 10642 10644 10647 10652 10658 10663 10667 10670 10674 10677 10681 10684 10686 10689 10692 10693 10695 10696 10696 10697 10697 10698 10698 10698 10698 10697 10697 10696 10695 10695 10694 10693 10692 10690 10689 10688 10688 10689 10689 10689 10690 10690 10690 10691 10692 10694 10695 10696 10697 10699 10701 10702 10704 10706 10708 10710 10712 10714 10716 10718 10721 10722 10724 10725 10726 10728 10730 10731 10732 10734 10736 10737 10738 10740 10741 10742 10742 10744 10746 10748 10749 10751
10608 10615 10621 10625 10630 10634 10637 10641 10646 10652 10657 10661 10664 10668 10673 10676 10679 10682 10685 10687 10690 10691 10692 10693 10694 10694 10695 10695 10695 10696 10696 10695 10694 10694 10694 10693 10693 10692 10691 10689 10689 10689 10689 10689 10689 10689 10690 10690 10690 10692 10693 10694 10695 10697 10698 10700 10703 10704 10705 10706 10708 10711 10714 10715 10718 10721 10722 10723 10725 10727 10728 10729 10731 10733 10735 10736 10737 10738 10739 10740 10742 10743 10745 10747 10748 10749 10750
10599 10606 10612 10617 10621 10626 10630 10634 10640 10646 10651 10655 10659 10663 10667 10671 10674 10677 10680 10683 10686 10687 10688 10690 10691 10691 10692 10692 10693 10694 10694 10693 10693 10692 10693 10692 10692 10692 10691 10690 10690 10689 10689 10688 10688 10688 10689 10689 10689 10691 10692 10693 10695 10696 10697 10700 10702 10703 10704 10706 10707 10710 10712 10715 10717 10720 10722 10723 10724 10727 10729 10730 10732 10733 10735 10736 10737 10738 10739 10740 10742 10743 10745 10746 10747 10749 10750
10590 10596 10603 10608 10613 10618 10623 10628 10633 10640 10645 10649 10653 10657 10661 10666 10669 10673 10676 10679 10681 10683 10685 10687 10688 10688 10689 10690 10690 10691 10692 10692 10691 10691 10691 10691 10691 10691 10690 10690 10689 10689 10688 10688 10688 10688 10688 10688 10688 10690 10692 10692 10694 10695 10697 10699 10701 10702 10704 10706 10707 10709 10712 10715 10717 10719 10721 10723 10724 10727 10730 10731 10733 10734 10735 10736 10737 10738 10740 10740 10741 10743 10744 10745 10746 10747 10749
10581 10587 10593 10599 10604 10610 10616 10621 10627 10634 10639 10644 10647 10651 10656 10661 10664 10667 10671 10674 10677 10680 10682 10683 10684 10686 10686 10687 10688 10689 10690 10690 10690 10690 10690 10690 10689 10689 10689 10689 10688 10688 10688 10687 10687 10687 10687 10688 10688 10690 10691 10691 10692 10694 10695 10698 10699 10701 10703 10706 10707 10709 10712 10714 10716 10719 10721 10723 10724 10726 10728 10730 10732 10733 10735 10737 10737 10738 10739 10740 10741 10742 10743 10744 10745 10746 10748
10572 10578 10585 10591 10597 10603 10609 10614 10621 10628 10633 10638 10641 10646 10651 10655 10658 10662 10666 10669 10673 10675 10677 10679 10681 10683 10683 10684 10685 10687 10687 10688 10688 10688 10688 10688 10688 10688 10688 10687 10687 10687 10687 10686 10686 10686 10687 10687 10688 10689 10690 10691 10691 10692 10694 10696 10698 10700 10703 10706 10707 10709 10712 10713 10715 10718 10720 10721 10723 10725 10726 10728 10730 10732 10733 10735 10737 10738 10738 10739 10740 10742 10743 10743 10744 10746 10746
10564 10571 10577 10584 10590 10597 10602 10608 10614 10621 10627 10632 10636 10640 10644 10648 10653 10659 10662 10665 10669 10671 10674 10676 10678 10679 10680 10681 10683 10684 10685 10686 10686 10686 10686 10686 10687 10687 10687 10686 10686 10685 10685 10685 10685 10685 10685 10686 10687 10688 10690 10691 10691 10691 10693 10695 10697 10699 10703 10707 10708 10709 10711 10712 10714 10716 10717 10719 10721 10723 10725 10727 10729 10731 10731 10733 10735 10736 10737 10738 10740 10741 10742 10742 10743 10745 10746
10557 10564 10570 10577 10583 10590 10596 10601 10608 10615 10620 10625 10630 10634 10639 10644 10650 10654 10657 10660 10664 10667 10670 10673 10674 10676 10678 10679 10680 10681 10682 10683 10684 10684 10685 10685 10685 10685 10685 10685 10684 10684 10684 10683 10683 10683 10684 10685 10686 10687 10688 10689 10690 10691 10693 10696 10697 10699 10703 10706 10707 10709 10710 10711 10713 10714 10715 10717 10719 10722 10724 10726 10728 10730 10731 10731 10733 10735 10736 10738 10739 10740 10741 10742 10743 10744 10745
10550 10557 10564 10570 10577 10583 10589 10595 10602 10608 10614 10619 10624 10629 10635 10640 10644 10648 10651 10655 10660 10663 10666 10668 10671 10673 10675 10675 10676 10678 10680 10681 10682 10682 10683 10683 10683 10684 10684 10684 10683 10683 10682 10682 10681 10682 10682 10683 10684 10685 10686 10688 10689 10690 10692 10695 10697 10699 10703 10706 10706 10708 10709 10711 10712 10713 10715 10717 10719 10721 10724 10726 10727 10729 10730 10731 10733 10735 10736 10737 10738 10739 10740 10741 10742 10743 10744
10543 10550 10557 10564 10570 10577 10583 10589 10595 10602 10609 10613 10619 10625 10630 10634 10638 10642 10646 10651 10655 10658 10661 10664 10667 10670 10671 10672 10673 10675 10677 10678 10679 10680 10681 10681 10682 10682 10682 10682 10682 10681 10681 10680 10680 10680 10681 10682 10683 10684 10685 10686 10688 10689 10690 10693 10695 10698 10701 10703 10705 10706 10708 10710 10711 10713 10715 10717 10720 10722 10723 10725 10726 10728 10730 10732 10733 10734 10735 10736 10737 10738 10738 10740 10741 10742 10742
10536 10543 10550 10557 10564 10571 10577 10583 10590 10597 10602 10608 10615 10620 10623 10627 10632 10636 10641 10646 10650 10653 10657 10660 10663 10665 10667 10669 10670 10672 10674 10676 10677 10678 10679 10679 10680 10680 10681 10681 10681 10680 10679 10679 10679 10680 10681 10682 10682 10682 10684 10685 10686 10687 10689 10692 10694 10696 10698 10701 10703 10705 10706 10708 10709 10712 10715 10719 10720 10721 10722 10724 10725 10727 10730 10732 10733 10733 10734 10735 10736 10736 10737 10738 10739 10740 10740
10530 10537 10544 10551 10558 10565 10571 10577 10584 10590 10596 10603 10610 10614 10617 10622 10627 10631 10636 10642 10645 10648 10653 10656 10659 10661 10663 10665 10668 10670 10671 10673 10674 10675 10677 10677 10678 10678 10679 10679 10679 10679 10678 10678 10678 10679 10680 10681 10681 10681 10683 10684 10685 10686 10688 10690 10693 10695 10697 10700 10702 10703 10705 10706 10708 10710 10714 10717 10718 10719 10721 10722 10724 10726 10728 10730 10731 10733 10733 10734 10734 10735 10735 10736 10737 10737 10737
10523 10531 10537 10544 10551 10558 10565 10571 10577 10584 10591 10598 10603 10607 10611 10617 10622 10626 10632 10637 10640 10644 10648 10651 10654 10657 10659 10662 10665 10666 10668 10670 10671 10673 10674 10675 10676 10676 10677 10677 10677 10677 10678 10678 10677 10676 10678 10679 10679 10680 10682 10683 10684 10686 10688 10690 10692 10693 10696 10698 10699 10701 10703 10705 10706 10709 10712 10714 10714 10716 10718 10720 10721 10723 10725 10727 10728 10730 10731 10732 10733 10733 10733 10734 10735 10735 10735
10517 10525 10532 10538 10545 10552 10558 10565 10571 10578 10585 10592 10597 10601 10606 10612 10616 10622 10628 10632 10635 10639 10643 10646 10650 10653 10656 10658 10661 10663 10665 10666 10668 10670 10671 10672 10673 10674 10674 10675 10676 10676 10676 10676 10676 10675 10676 10676 10677 10679 10680 10682 10683 10684 10686 10689 10690 10692 10694 10696 10697 10698 10700 10702 10704 10707 10710 10712 10713 10714 10715 10717 10718 10720 10722 10724 10725 10727 10728 10729 10730 10731 10731 10732 10733 10733 10733
10511 10519 10526 10533 10539 10546 10553 10559 10565 10571 10578 10585 10590 10595 10601 10607 10611 10617 10622 10626 10630 10634 10637 10642 10646 10649 10652 10654 10657 10659 10662 10663 10665 10667 10668 10670 10670 10671 10671 10673 10674 10674 10674 10674 10675 10675 10675 10675 10676 10677 10678 10680 10681 10682 10684 10686 10689 10691 10692 10694 10696 10697 10698 10700 10702 10705 10707 10709 10711 10712 10713 10714 10716 10717 10719 10721 10722 10723 10725 10726 10727 10728 10729 10730 10730 10731 10731
10506 10513 10521 10528 10534 10541 10547 10553 10560 10566 10572 10579 10585 10590 10596 10601 10606 10611 10616 10620 10624 10629 10633 10638 10641 10643 10646 10649 10652 10655 10658 10660 10662 10664 10666 10667 10667 10668 10668 10670 10672 10672 10672 10672 10673 10673 10673 10674 10674 10675 10676 10677 10679 10681 10682 10684 10687 10690 10691 10693 10695 10696 10698 10699 10701 10702 10704 10706 10708 10709 10711 10713 10714 10714 10716 10718 10719 10720 10722 10724 10725 10726 10727 10728 10728 10728 10729
10500 10508 10515 10522 10529 10536 10542 10548 10554 10560 10567 10573 10580 10585 10591 10596 10601 10605 10610 10615 10620 10625 10629 10633 10634 10637 10641 10645 10648 10651 10654 10657 10659 10661 10662 10663 10664 10665 10665 10667 10669 10670 10670 10670 10671 10671 10671 10672 10672 10673 10674 10675 10676 10678 10680 10682 10684 10687 10689 10690 10692 10694 10696 10698 10699 10700 10702 10704 10705 10706 10708 10711 10711 10712 10714 10715 10716 10717 10719 10721 10722 10723 10724 10725 10725 10726 10726
10495 10502 10510 10517 10523 10530 10536 10542 10549 10555 10561 10568 10574 10579 10585 10591 10595 10599 10605 10610 10615 10620 10624 10626 10629 10633 10638 10641 10644 10647 10651 10653 10655 10657 10658 10659 10661 10662 10662 10664 10667 10668 10668 10668 10668 10668 10669 10669 10669 10670 10671 10672 10674 10675 10677 10679 10681 10683 10685 10687 10689 10691 10693 10695 10696 10698 10699 10700 10701 10703 10705 10707 10708 10709 10711 10712 10713 10715 10717 10718 10719 10720 10721 10722 10723 10723 10724
10490 10497 10504 10511 10518 10524 10530 10537 10543 10549 10555 10561 10567 10573 10578 10584 10589 10594 10599 10605 10610 10615 10619 10621 10625 10630 10634 10637 10640 10644 10646 10648 10650 10652 10655 10656 10658 10658 10659 10661 10663 10665 10666 10666 10666 10666 10666 10666 10667 10668 10669 10670 10671 10673 10675 10677 10679 10681 10682 10684 10685 10687 10689 10691 10693 10694 10695 10697 10698 10699 10702 10704 10705 10707 10708 10709 10711 10713 10713 10714 10716 10717 10718 10719 10720 10720 10721
10485 10492 10499 10505 10512 10518 10525 10531 10537 10543 10549 10555 10561 10566 10572 10578 10583 10588 10594 10600 10605 10609 10613 10617 10623 10628 10630 10632 10636 10639 10641 10643 10647 10649 10651 10652 10654 10655 10656 10658 10660 10661 10663 10664 10664 10664 10664 10664 10665 10666 10667 10668 10669 10670 10672 10674 10676 10678 10679 10681 10683 10685 10686 10688 10689 10690 10692 10693 10694 10696 10700 10702 10702 10703 10705 10707 10709 10710 10710 10711 10714 10714 10714 10715 10716 10717 10718
10479 10486 10493 10500 10506 10512 10518 10524 10530 10537 10543 10549 10555 10560 10566 10572 10578 10583 10589 10594 10599 10604 10609 10615 10619 10621 10623 10626 10630 10633 10636 10640 10643 10644 10645 10648 10650 10651 10652 10655 10657 10658 10660 10661 10662 10661 10661 10662 10663 10664 10665 10666 10666 10668 10669 10671 10672 10675 10677 10679 10681 10682 10683 10684 10686 10687 10687 10689 10691 10694 10697 10698 10698 10699 10702 10704 10705 10706 10708 10709 10710 10710 10711 10712 10713 10714 10714
10473 10480 10487 10494 10500 10506 10512 10518 10524 10530 10536 10543 10549 10555 10560 10566 10572 10578 10584 10589 10594 10600 10605 10609 10612 10614 10617 10622 10625 10629 10633 10636 10638 10640 10642 10645 10647 10648 10649 10652 10654 10655 10657 10658 10659 10659 10659 10660 10661 10662 10662 10663 10664 10665 10666 10668 10670 10672 10675 10676 10677 10678 10679 10680 10682 10683 10684 10686 10689 10691 10692 10693 10695 10697 10699 10700 10702 10704 10705 10706 10706 10707 10708 10709 10709 10710 10711
10468 10475 10481 10488 10494 10500 10506 10512 10518 10524 10531 10537 10543 10549 10555 10560 10566 10573 10579 10584 10590 10595 10598 10601 10605 10608 10612 10616 10621 10624 10628 10632 10635 10637 10639 10641 10643 10644 10646 10648 10650 10651 10652 10654 10656 10657 10657 10658 10659 10659 10660 10661 10662 10662 10664 10666 10668 10670 10672 10673 10674 10676 10676 10676 10678 10681 10682 10683 10686 10688 10690 10691 10692 10694 10696 10697 10698 10700 10701 10701 10702 10703 10704 10705 10705 10706 10707
10462 10469 10475 10482 10488 10495 10501 10507 10513 10519 10526 10532 10538 10543 10549 10555 10561 10568 10573 10578 10584 10589 10591 10595 10599 10602 10607 10612 10616 10620 10624 10627 10630 10633 10635 10637 10639 10640 10642 10644 10647 10648 10649 10650 10652 10654 10654 10655 10656 10657 10658 10658 10659 10660 10662 10663 10665 10667 10669 10670 10672 10674 10673 10672 10675 10679 10678 10678 10682 10686 10688 10688 10689 10691 10692 10693 10695 10697 10698 10698 10699 10700 10701 10701 10701 10702 10703
10457 10464 10470 10476 10483 10489 10496 10502 10508 10515 10521 10527 10533 10538 10544 10550 10556 10562 10567 10573 10578 10582 10585 10590 10594 10599 10604 10607 10610 10615 10619 10622 10625 10629 10631 10633 10635 10636 10637 10641 10643 10645 10646 10647 10649 10651 10652 10653 10654 10655 10656 10656 10656 10658 10659 10661 10663 10664 10665 10667 10669 10670 10669 10668 10672 10675 10674 10675 10680 10683 10684 10685 10686 10688 10689 10690 10692 10694 10695 10695 10695 10696 10697 10697 10697 10698 10699
10453 10459 10465 10471 10477 10484 10491 10497 10504 10510 10516 10522 10527 10533 10539 10545 10551 10557 10562 10567 10571 10575 10580 10584 10588 10594 10597 10600 10605 10611 10614 10615 10619 10623 10626 10628 10630 10632 10634 10637 10640 10641 10643 10644 10646 10647 10648 10650 10651 10653 10653 10653 10654 10655 10656 10658 10660 10661 10661 10663 10666 10666 10666 10667 10670 10671 10671 10673 10678 10681 10681 10682 10684 10684 10685 10686 10687 10687 10688 10689 10690 10691 10691 10692 10693 10693 10694
10448 10454 10460 10466 10472 10478 10485 10492 10498 10505 10511 10516 10522 10528 10534 10540 10546 10551 10557 10561 10565 10570 10574 10578 10584 10590 10593 10597 10603 10606 10606 10610 10614 10618 10621 10625 10627 10628 10630 10632 10635 10637 10639 10640 10641 10642 10644 10646 10648 10649 10650 10650 10651 10653 10654 10655 10657 10658 10658 10660 10662 10663 10664 10665 10666 10666 10668 10671 10674 10675 10675 10677 10678 10678 10679 10681 10681 10681 10682 10683 10684 10685 10686 10686 10687 10688 10689
10444 10450 10455 10461 10467 10473 10480 10486 10493 10499 10505 10511 10517 10523 10529 10535 10540 10546 10551 10555 10560 10564 10568 10574 10581 10585 10586 10591 10596 10598 10600 10606 10610 10613 10616 10620 10622 10623 10625 10627 10630 10633 10634 10634 10635 10637 10640 10642 10644 10645 10645 10646 10647 10650 10651 10652 10653 10655 10656 10657 10659 10661 10661 10661 10661 10663 10665 10667 10667 10668 10669 10670 10672 10672 10674 10676 10677 10676 10678 10680 10680 10680 10681 10681 10682 10684 10684
10440 10446 10451 10457 10462 10468 10475 10481 10487 10494 10500 10505 10511 10517 10523 10529 10535 10540 10545 10550 10554 10558 10563 10568 10573 10576 10580 10586 10589 10591 10597 10602 10604 10607 10611 10613 10616 10619 10620 10622 10625 10627 10628 10629 10632 10634 10635 10638 10640 10640 10640 10641 10644 10647 10649 10649 10650 10651 10653 10655 10656 10657 10656 10656 10658 10660 10662 10662 10662 10663 10664 10666 10667 10668 10670 10672 10672 10672 10673 10675 10676 10676 10677 10677 10678 10679 10680
10437 10442 10448 10453 10458 10464 10470 10477 10483 10489 10495 10500 10506 10511 10518 10524 10529 10534 10539 10544 10548 10552 10557 10562 10567 10572 10577 10580 10582 10586 10592 10595 10597 10601 10605 10608 10610 10613 10615 10618 10620 10621 10622 10625 10627 10629 10631 10634 10636 10636 10635 10638 10642 10645 10646 10646 10647 10648 10649 10651 10653 10652 10650 10651 10655 10657 10658 10658 10658 10658 10660 10662 10663 10664 10666 10667 10667 10667 10668 10669 10670 10671 10672 10672 10673 10674 10675
10433 10438 10444 10449 10454 10460 10466 10472 10477 10483 10489 10495 10501 10506 10513 10518 10523 10528 10533 10537 10542 10546 10551 10556 10562 10567 10570 10572 10576 10581 10586 10588 10591 10596 10600 10602 10605 10607 10609 10613 10614 10615 10617 10620 10622 10624 10627 10629 10631 10631 10632 10634 10638 10640 10642 10643 10643 10644 10645 10647 10648 10647 10647 10648 10651 10652 10653 10654 10654 10654 10656 10659 10659 10660 10661 10661 10662 10662 10663 10664 10665 10666 10666 10667 10668 10669 10670
10428 10434 10439 10444 10450 10455 10461 10466 10472 10478 10484 10490 10495 10501 10507 10512 10516 10522 10526 10531 10536 10540 10545 10550 10556 10559 10562 10566 10571 10575 10579 10582 10586 10590 10593 10596 10599 10601 10604 10606 10608 10609 10612 10615 10617 10619 10622 10623 10625 10627 10628 10630 10633 10635 10638 10639 10639 10641 10642 10642 10643 10644 10645 10646 10647 10647 10648 10649 10650 10651 10653 10654 10654 10655 10656 10656 10657 10658 10659 10659 10660 10660 10661 10662 10663 10663 10664
10424 10429 10434 10439 10445 10450 10455 10461 10466 10472 10478 10484 10489 10495 10500 10505 10510 10515 10520 10525 10529 10534 10539 10544 10548 10552 10556 10560 10564 10568 10573 10577 10580 10583 10587 10591 10593 10595 10598 10600 10602 10605 10607 10609 10611 10614 10616 10618 10620 10623 10624 10625 10627 10631 10633 10634 10634 10636 10638 10638 10639 10641 10642 10642 10642 10643 10644 10645 10646 10647 10649 10649 10649 10650 10652 10652 10653 10654 10654 10654 10655 10655 10656 10657 10657 10658 10659
10418 10423 10429 10434 10439 10444 10450 10455 10460 10466 10472 10478 10483 10489 10494 10499 10504 10509 10513 10518 10523 10527 10532 10537 10541 10545 10550 10553 10557 10562 10567 10570 10574 10578 10582 10584 10586 10589 10592 10594 10596 10599 10601 10603 10605 10609 10611 10613 10615 10618 10619 10621 10623 10626 10628 10627 10628 10630 10633 10634 10636 10638 10638 10638 10639 10640 10640 10641 10642 10642 10644 10644 10644 10645 10647 10647 10648 10648 10649 10649 10650 10650 10650 10652 10652 10653 10654
10413 10418 10423 10428 10433 10438 10444 10449 10454 10460 10466 10472 10477 10482 10487 10492 10497 10502 10506 10511 10516 10521 10526 10530 10534 10539 10542 10545 10550 10556 10561 10563 10567 10571 10574 10576 10579 10582 10585 10587 10591 10594 10595 10597 10600 10604 10606 10607 10609 10612 10614 10617 10619 10621 10621 10621 10622 10625 10628 10630 10633 10634 10634 10635 10636 10636 10635 10636 10637 10638 10639 10639 10640 10641 10641 10642 10642 10642 10643 10644 10645 10645 10646 10647 10648 10648 10648
10407 10412 10417 10422 10427 10432 10437 10443 10448 10454 10460 10465 10471 10476 10481 10485 10490 10495 10499 10504 10509 10514 10518 10523 10527 10532 10536 10540 10546 10550 10553 10555 10559 10563 10566 10569 10572 10575 10578 10582 10585 10588 10589 10592 10596 10600 10601 10601 10604 10607 10610 10612 10615 10616 10615 10615 10618 10621 10623 10626 10629 10630 10630 10630 10632 10632 10631 10632 10632 10633 10634 10635 10636 10636 10636 10636 10636 10636 10637 10638 10639 10640 10641 10642 10642 10642 10642
10400 10405 10410 10415 10420 10426 10431 10437 10442 10448 10453 10459 10464 10469 10474 10479 10483 10488 10493 10498 10502 10507 10512 10516 10521 10525 10530 10535 10539 10540 10542 10547 10552 10555 10558 10562 10565 10568 10571 10576 10579 10582 10584 10588 10592 10595 10595 10595 10599 10603 10605 10608 10610 10610 10609 10610 10613 10616 10618 10620 10623 10624 10624 10627 10628 10628 10625 10625 10627 10629 10629 10630 10631 10631 10632 10632 10632 10631 10631 10632 10633 10635 10635 10636 10636 10636 10636
10392 10397 10402 10407 10413 10418 10424 10430 10435 10441 10446 10452 10457 10462 10467 10472 10476 10481 10486 10491 10496 10500 10506 10510 10514 10518 10523 10527 10530 10531 10535 10541 10544 10547 10551 10555 10558 10560 10564 10569 10572 10576 10579 10582 10585 10587 10587 10589 10594 10598 10600 10602 10603 10604 10604 10604 10607 10609 10612 10615 10617 10619 10620 10621 10622 10620 10618 10619 10622 10624 10624 10625 10625 10626 10627 10627 10627 10627 10626 10626 10627 10628 10629 10629 10629 10629 10630
10384 10389 10394 10399 10405 10411 10417 10423 10428 10433 10439 10444 10449 10454 10459 10465 10469 10475 10479 10484 10489 10494 10499 10503 10508 10512 10517 10520 10522 10525 10529 10534 10537 10540 10544 10548 10550 10553 10558 10562 10565 10569 10572 10574 10576 10578 10580 10584 10588 10591 10593 10595 10596 10597 10597 10597 10599 10603 10608 10611 10613 10613 10612 10613 10613 10613 10613 10616 10618 10618 10618 10618 10619 10621 10621 10621 10622 10622 10622 10622 10622 10622 10622 10622 10622 10621 10622
10376 10381 10386 10392 10397 10403 10409 10415 10420 10426 10431 10436 10441 10446 10452 10457 10462 10467 10472 10477 10481 10487 10492 10496 10501 10505 10508 10511 10514 10518 10523 10527 10530 10534 10538 10540 10542 10547 10551 10554 10557 10562 10565 10567 10569 10571 10573 10577 10582 10585 10586 10587 10588 10590 10590 10591 10595 10601 10605 10605 10604 10604 10604 10606 10608 10608 10609 10609 10610 10611 10612 10612 10613 10614 10615 10614 10615 10616 10616 10617 10618 10618 10619 10619 10617 10615 10615
10367 10372 10378 10384 10390 10396 10402 10407 10413 10418 10423 10428 10433 10438 10443 10448 10453 10459 10464 10469 10474 10479 10484 10488 10491 10496 10500 10504 10508 10514 10518 10520 10522 10527 10530 10532 10535 10540 10542 10545 10550 10555 10557 10560 10563 10564 10565 10570 10576 10578 10578 10579 10581 10583 10585 10587 10591 10596 10597 10596 10596 10597 10599 10601 10601 10602 10602 10602 10603 10605 10605 10605 10606 10608 10608 10607 10608 10609 10610 10611 10612 10612 10614 10615 10613 10612 10611
10359 10365 10370 10377 10382 10388 10393 10398 10404 10409 10415 10420 10424 10429 10434 10439 10444 10450 10455 10460 10465 10470 10475 10479 10483 10488 10493 10497 10502 10507 10510 10511 10514 10518 10521 10523 10526 10530 10533 10538 10544 10547 10548 10551 10555 10556 10557 10562 10568 10570 10570 10572 10574 10576 10579 10582 10586 10588 10589 10589 10590 10592 10594 10595 10595 10595 10596 10596 10596 10598 10599 10599 10600 10601 10601 10601 10601 10602 10603 10604 10604 10606 10608 10609 10607 10607 10607
10353 10358 10363 10369 10374 10380 10385 10390 10396 10401 10406 10411 10415 10420 10425 10430 10435 10440 10446 10450 10455 10460 10466 10471 10475 10480 10484 10489 10493 10497 10500 10502 10506 10510 10512 10515 10519 10522 10526 10531 10536 10537 10538 10543 10547 10549 10551 10555 10558 10560 10563 10566 10567 10569 10572 10576 10579 10580 10581 10583 10585 10586 10587 10588 10588 10588 10589 10590 10590 10591 10592 10592 10593 10593 10593 10593 10594 10595 10595 10596 10596 10598 10601 10601 10600 10600 10601
10345 10350 10355 10361 10366 10372 10377 10382 10387 10392 10397 10401 10406 10410 10415 10420 10425 10431 10437 10442 10447 10453 10458 10462 10467 10471 10476 10482 10486 10488 10490 10494 10499 10502 10505 10509 10512 10516 10520 10523 10525 10526 10530 10536 10540 10542 10545 10547 10548 10551 10556 10560 10561 10563 10566 10569 10572 10573 10574 10576 10578 10579 10580 10581 10581 10581 10582 10583 10583 10583 10584 10585 10586 10586 10586 10586 10587 10587 10587 10588 10588 10589 10591 10593 10592 10593 10594
10337 10342 10347 10352 10358 10363 10369 10374 10378 10382 10386 10391 10395 10401 10406 10411 10416 10423 10429 10434 10438 10443 10448 10452 10456 10462 10468 10473 10475 10477 10480 10486 10490 10494 10497 10501 10505 10508 10511 10513 10515 10518 10524 10529 10532 10535 10538 10538 10539 10543 10548 10553 10555 10557 10559 10561 10564 10566 10567 10568 10569 10571 10573 10574 10574 10575 10576 10575 10575 10576 10577 10577 10578 10579 10579 10579 10580 10579 10580 10581 10581 10581 10582 10583 10583 10584 10586
10329 10334 10339 10344 10349 10355 10359 10363 10367 10372 10376 10381 10386 10391 10396 10402 10410 10418 10422 10424 10427 10433 10439 10444 10449 10454 10459 10463 10466 10468 10472 10478 10481 10484 10489 10494 10497 10500 10501 10504 10508 10513 10517 10521 10525 10528 10528 10527 10529 10534 10540 10544 10547 10549 10551 10554 10556 10559 10560 10560 10561 10563 10565 10566 10567 10568 10568 10568 10568 10569 10569 10569 10570 10570 10571 10571 10572 10572 10572 10573 10573 10572 10573 10574 10574 10576 10577
10321 10326 10331 10336 10341 10345 10349 10353 10357 10362 10368 10373 10378 10383 10389 10396 10404 10409 10409 10412 10420 10428 10433 10436 10440 10445 10449 10453 10457 10460 10464 10469 10472 10476 10481 10486 10488 10490 10493 10497 10503 10506 10509 10513 10517 10517 10515 10516 10521 10526 10531 10535 10538 10540 10543 10547 10549 10551 10552 10553 10554 10555 10557 10558 10559 10559 10559 10560 10560 10561 10561 10561 10561 10561 10562 10563 10564 10564 10565 10565 10565 10564 10564 10564 10565 10567 10568
10313 10317 10322 10327 10331 10335 10339 10343 10348 10354 10359 10364 10369 10375 10382 10389 10393 10396 10399 10406 10415 10421 10423 10425 10431 10437 10441 10444 10448 10452 10456 10461 10464 10468 10472 10476 10479 10482 10486 10491 10495 10498 10501 10504 10505 10503 10503 10507 10513 10518 10522 10526 10529 10532 10536 10540 10541 10542 10544 10546 10546 10546 10548 10549 10550 10550 10551 10551 10552 10553 10553 10552 10552 10553 10553 10554 10554 10555 10556 10557 10557 10556 10555 10554 10555 10558 10559
10305 10310 10314 10318 10321 10325 10330 10335 10340 10345 10351 10357 10362 10368 10374 10378 10383 10388 10394 10401 10408 10411 10412 10416 10423 10428 10431 10434 10439 10444 10449 10452 10455 10458 10463 10468 10471 10474 10478 10482 10485 10488 10490 10492 10491 10492 10496 10502 10506 10509 10514 10518 10521 10524 10528 10531 10531 10532 10535 10537 10537 10537 10539 10540 10540 10540 10542 10542 10543 10544 10543 10543 10544 10544 10545 10545 10545 10546 10546 10547 10547 10547 10546 10545 10546 10548 10550
10299 10303 10306 10310 10313 10318 10323 10328 10332 10338 10344 10349 10354 10359 10364 10369 10375 10382 10388 10393 10397 10400 10403 10408 10413 10418 10422 10426 10431 10437 10441 10443 10445 10450 10455 10459 10461 10464 10468 10472 10475 10476 10478 10480 10482 10484 10489 10494 10497 10501 10507 10511 10512 10514 10519 10521 10520 10522 10525 10527 10526 10527 10529 10530 10529 10530 10532 10533 10534 10534 10534 10535 10535 10535 10535 10535 10536 10536 10537 10537 10538 10537 10537 10536 10536 10538 10540
10291 10295 10299 10302 10307 10312 10316 10320 10324 10330 10335 10340 10345 10351 10356 10362 10370 10376 10380 10383 10387 10391 10395 10399 10404 10409 10414 10418 10422 10426 10430 10433 10437 10442 10446 10448 10451 10455 10459 10462 10463 10464 10467 10470 10474 10477 10481 10486 10490 10495 10500 10503 10503 10504 10508 10510 10510 10513 10516 10516 10516 10517 10519 10519 10520 10521 10523 10523 10524 10525 10525 10526 10526 10527 10526 10526 10526 10526 10527 10528 10528 10528 10528 10527 10527 10528 10530
10283 10287 10292 10296 10300 10304 10308 10312 10316 10322 10327 10332 10338 10343 10349 10357 10365 10369 10370 10372 10375 10380 10384 10390 10396 10402 10406 10409 10412 10416 10421 10426 10430 10433 10436 10438 10442 10445 10448 10449 10451 10455 10458 10462 10465 10469 10474 10479 10484 10487 10491 10492 10492 10493 10497 10500 10501 10503 10505 10506 10505 10507 10508 10509 10510 10512 10513 10513 10514 10515 10515 10516 10517 10517 10517 10517 10517 10517 10517 10518 10519 10519 10518 10517 10517 10519 10520